Weather History for Dayton Wright, OH

Change the Weather History Date:

Thursday, November 22, 2012

  Actual Average (KFFO) Record (KFFO)
Temperature  
Mean Temperature 50 °F -  
Max Temperature 62 °F 48 °F 69 °F (1999)
Min Temperature 39 °F 31 °F 14 °F (2000)
Degree Days  
Heating Degree Days 14    
Moisture  
Dew Point 39 °F    
Average Humidity 66    
Maximum Humidity 93    
Minimum Humidity 44    
Precipitation  
Precipitation 0.00 in - - ()
Sea Level Pressure  
Sea Level Pressure 30.13 in    
Wind  
Wind Speed 5 mph (South)    
Max Wind Speed 16 mph    
Max Gust Speed 23 mph    
Visibility 10 miles    
Events      
Averages and records for this station are not official NWS values.
T = Trace of Precipitation, MM = Missing Value Source: NWS Daily Summary

Daily Weather History Graph

Daily Weather History Graph

Search for Another Location

Airport:

Trip Planner

Search our weather history database for the weather conditions in past years. The results will help you decide how hot, cold, wet, or windy it might be!

Date:

Astronomy

Nov. 22, 2012 Rise Set
Actual Time 7:29 AM EST 5:16 PM EST
Civil Twilight 7:00 AM EST 5:45 PM EST
Nautical Twilight 6:27 AM EST 6:18 PM EST
Astronomical Twilight 5:55 AM EST 6:50 PM EST
Moon 2:00 PM EST 1:49 AM EST
Length of Visible Light 10h 45m
Length of Day
9h 47m
Waxing Gibbous, 71% of the Moon is Illuminated
Nov 22
Waxing Gibbous
Nov 28
Full
Dec 6
Last Quarter
Dec 13
New
Dec 20
First Quarter

Hourly Weather History & Observations

Time (EST) Temp. Windchill Dew Point Humidity Pressure Visibility Wind Dir Wind Speed Gust Speed Precip Events Conditions
12:53 AM 39.9 °F - 36.0 °F 86% 30.21 in 10.0 mi Calm Calm - N/A   Clear
1:53 AM 43.0 °F - 37.0 °F 80% 30.21 in 9.0 mi Calm Calm - N/A   Clear
2:53 AM 39.0 °F - 37.0 °F 93% 30.21 in 8.0 mi Calm Calm - N/A   Clear
3:53 AM 41.0 °F 37.1 °F 37.0 °F 86% 30.20 in 10.0 mi SSE 5.8 mph - N/A   Clear
4:53 AM 43.0 °F 40.3 °F 36.0 °F 76% 30.20 in 10.0 mi South 4.6 mph - N/A   Clear
5:53 AM 43.0 °F 40.3 °F 36.0 °F 76% 30.20 in 10.0 mi South 4.6 mph - N/A   Clear
6:53 AM 43.0 °F 39.5 °F 36.0 °F 76% 30.20 in 10.0 mi South 5.8 mph - N/A   Clear
7:53 AM 42.1 °F 38.4 °F 36.0 °F 79% 30.21 in 10.0 mi South 5.8 mph - N/A   Clear
8:53 AM 46.0 °F 43.9 °F 39.9 °F 79% 30.21 in 10.0 mi South 4.6 mph - N/A   Clear
9:53 AM 48.9 °F - 39.9 °F 71% 30.21 in 10.0 mi South 6.9 mph - N/A   Clear
10:53 AM 55.0 °F - 41.0 °F 59% 30.20 in 10.0 mi South 8.1 mph - N/A   Clear
11:53 AM 57.9 °F - 41.0 °F 53% 30.16 in 10.0 mi SSW 10.4 mph - N/A   Clear
12:53 PM 61.0 °F - 41.0 °F 48% 30.13 in 10.0 mi South 11.5 mph 20.7 mph N/A   Clear
1:53 PM 62.1 °F - 41.0 °F 46% 30.10 in 10.0 mi SSW 16.1 mph 23.0 mph N/A   Clear
2:53 PM 62.1 °F - 42.1 °F 48% 30.09 in 10.0 mi South 10.4 mph - N/A   Clear
3:53 PM 62.1 °F - 39.9 °F 44% 30.08 in 10.0 mi SSW 10.4 mph - N/A   Clear
4:53 PM 60.1 °F - 39.9 °F 47% 30.07 in 10.0 mi SSW 8.1 mph - N/A   Clear
5:53 PM 54.0 °F - 39.9 °F 59% 30.06 in 10.0 mi South 8.1 mph - N/A   Partly Cloudy
6:53 PM 55.9 °F - 39.9 °F 55% 30.05 in 10.0 mi SSW 8.1 mph - N/A   Clear
7:53 PM 53.1 °F - 39.9 °F 61% 30.04 in 10.0 mi SSW 8.1 mph - N/A   Clear
8:53 PM 55.0 °F - 41.0 °F 59% 30.03 in 10.0 mi SSW 5.8 mph - N/A   Clear
9:53 PM 55.0 °F - 41.0 °F 59% 30.02 in 10.0 mi SSW 10.4 mph - N/A   Clear
10:53 PM 50.0 °F - 41.0 °F 71% 30.00 in 10.0 mi SSW 9.2 mph - N/A   Clear
11:53 PM 52.0 °F - 42.1 °F 69% 30.00 in 10.0 mi SSW 9.2 mph - N/A   Clear